Volver al catálogo

STARLINK-34674

ActivoComunicacionesSSO
NORAD 65526·PAYLOAD·🇺🇸 United States

Lanzado Sep 6, 2025 desde Cape Canaveral Space Force Station

Loading…

Próximos Pases (próximas 24 horas)

TLE

ActualizadoSource: CelesTrak SupGP

Época: Sep 14, 2026, 21:42 UTC

1 65526C 25200G   26257.90465278 -.00009360  00000+0 -29064-3 0  2576
2 65526  97.2850 324.3483 0001052  92.8281 209.7097 15.33434294    15

Sigue STARLINK-34674 en tiempo real con AllMySat

Download on the App Store